Date String (YYYY-MM-DD hh:mm:ss) UTC,Instrument flags,absolute air pressure of the measurement (hPa),sample flow rate (lpm),inlet stack bypass flow (lpm),air temperature of the measurement (°C),ambient temperature measured by the external sensor (°C),aerosol sample conditioner tube jacket temperature (°C),OPC LED temperature (°C),internal box temperature (°C),relative humidity of the measurement (%),span deviation,mass concentration of particles derived from Lorenz-Mie calculation of OPC scattering (μg/m³),mass concentration of particles derived from Lorenz-Mie calculation of OPC scattering (μg/m³),mass concentration of particles derived from Lorenz-Mie calculation of OPC scattering (μg/m³)
DateTimeUTC,F1_M11,P_M11,Q1_M11,Q2_M11,T1_M11,T2_M11,T3_M11,T4_M11,T5_M11,U1_M11,ZSPAN_M11,X0_M11,X2_M11,X1_M11
2023-10-29 22:00:00,SystemResetWarning,0838.6,5.00,000.00,020.4,019.2,000.0,028.9,021.7,11.8,0000.5,0009.05,0007.43,0007.31
2023-10-29 22:01:00,SystemResetWarning,0838.6,5.00,000.00,020.4,019.2,000.0,028.9,021.7,11.8,-000.0,0009.04,0007.42,0007.30
2023-10-29 22:02:00,SystemResetWarning,0838.6,5.00,000.00,020.4,019.2,000.0,028.9,021.8,11.8,0000.2,0009.08,0007.42,0007.30
2023-10-29 22:03:00,SystemResetWarning,0838.6,5.00,000.00,020.4,019.2,000.0,028.9,021.7,11.2,0000.4,0009.10,0007.42,0007.29
2023-10-29 22:04:00,SystemResetWarning,0838.6,5.00,000.00,020.4,019.2,000.0,028.9,021.7,11.1,0001.0,0009.11,0007.42,0007.29
2023-10-29 22:05:00,SystemResetWarning,0838.6,5.00,000.00,020.4,019.2,000.0,028.9,021.8,11.1,0001.2,0009.19,0007.46,0007.32
2023-10-29 22:06:00,SystemResetWarning,0838.6,5.01,000.00,020.4,019.2,000.0,028.8,021.7,10.8,0001.1,0009.16,0007.46,0007.32
2023-10-29 22:07:00,SystemResetWarning,0838.6,5.00,000.00,020.4,019.2,000.0,028.8,021.7,10.8,0000.5,0009.13,0007.43,0007.31
2023-10-29 22:08:00,SystemResetWarning,0838.6,4.99,000.00,020.3,019.2,000.0,028.8,021.7,10.9,0001.0,0009.15,0007.45,0007.32
2023-10-29 22:09:00,SystemResetWarning,0838.6,5.00,000.00,020.3,019.1,000.0,028.8,021.7,10.8,0000.5,0009.17,0007.46,0007.32
2023-10-29 22:10:00,SystemResetWarning,0838.6,4.99,000.00,020.3,019.1,000.0,028.8,021.7,10.4,-000.1,0009.21,0007.47,0007.32
2023-10-29 22:11:00,SystemResetWarning,0838.6,4.99,000.00,020.3,019.1,000.0,028.8,021.6,10.4,-000.6,0009.20,0007.47,0007.31
2023-10-29 22:12:00,SystemResetWarning,0838.6,5.00,000.00,020.3,019.1,000.0,028.8,021.6,10.8,-000.8,0009.27,0007.47,0007.30
2023-10-29 22:13:00,SystemResetWarning,0838.6,5.00,000.00,020.3,019.1,000.0,028.8,021.6,11.1,-001.1,0009.27,0007.47,0007.30
2023-10-29 22:14:00,SystemResetWarning,0838.6,5.00,000.00,020.3,019.1,000.0,028.8,021.6,11.3,-001.1,0009.25,0007.45,0007.27
2023-10-29 22:15:00,SystemResetWarning,0838.6,5.00,000.00,020.3,019.0,000.0,028.8,021.6,11.1,-000.4,0009.22,0007.40,0007.23
2023-10-29 22:16:00,SystemResetWarning,0838.6,5.00,000.00,020.2,019.0,000.0,028.8,021.6,11.4,-000.3,0009.13,0007.33,0007.16
2023-10-29 22:17:00,SystemResetWarning,0838.6,5.00,000.00,020.2,019.0,000.0,028.7,021.5,11.4,-000.2,0009.12,0007.28,0007.09
2023-10-29 22:18:00,SystemResetWarning,0838.6,5.00,000.00,020.2,019.0,000.0,028.7,021.5,11.4,-000.9,0009.08,0007.23,0007.03
2023-10-29 22:19:00,SystemResetWarning,0838.6,5.00,000.00,020.2,019.0,000.0,028.7,021.5,11.5,-000.5,0008.96,0007.13,0006.96
2023-10-29 22:20:00,SystemResetWarning,0838.6,5.00,000.00,020.2,018.9,000.0,028.7,021.4,11.7,-000.1,0008.88,0007.08,0006.93
2023-10-29 22:21:00,SystemResetWarning,0838.6,5.00,000.00,020.1,018.9,000.0,028.7,021.4,11.5,-000.2,0008.86,0007.07,0006.93
2023-10-29 22:22:00,SystemResetWarning,0838.6,4.99,000.00,020.1,018.9,000.0,028.7,021.4,11.5,-000.1,0008.85,0007.07,0006.93
2023-10-29 22:23:00,SystemResetWarning,0838.6,4.99,000.00,020.1,018.9,000.0,028.6,021.3,11.7,-000.2,0008.82,0007.10,0006.96
2023-10-29 22:24:00,SystemResetWarning,0838.6,5.00,000.00,020.1,018.8,000.0,028.6,021.3,11.8,0000.1,0008.81,0007.12,0006.99
2023-10-29 22:25:00,SystemResetWarning,0838.6,5.00,000.00,020.0,018.8,000.0,028.6,021.3,12.1,0000.5,0008.84,0007.16,0007.03
2023-10-29 22:26:00,SystemResetWarning,0838.6,5.00,000.00,020.0,018.8,000.0,028.6,021.3,12.0,0000.5,0008.88,0007.23,0007.09
2023-10-29 22:27:00,SystemResetWarning,0838.7,5.00,000.00,020.0,018.7,000.0,028.6,021.3,12.2,0000.4,0008.90,0007.28,0007.15
2023-10-29 22:28:00,SystemResetWarning,0838.7,5.00,000.00,020.0,018.7,000.0,028.6,021.3,12.1,0000.4,0008.93,0007.34,0007.24
2023-10-29 22:29:00,SystemResetWarning,0838.7,5.00,000.00,020.0,018.7,000.0,028.5,021.3,12.2,0000.5,0008.97,0007.40,0007.30
2023-10-29 22:30:00,SystemResetWarning,0838.7,4.99,000.00,020.0,018.7,000.0,028.5,021.3,12.3,0000.6,0009.02,0007.45,0007.36
2023-10-29 22:31:00,SystemResetWarning,0838.7,5.00,000.00,020.0,018.8,000.0,028.5,021.3,12.4,0001.5,0009.09,0007.51,0007.40
2023-10-29 22:32:00,SystemResetWarning,0838.7,5.00,000.00,020.0,018.8,000.0,028.5,021.4,12.4,0001.1,0009.09,0007.52,0007.42
2023-10-29 22:33:00,SystemResetWarning,0838.8,5.00,000.00,020.0,019.0,000.0,028.4,021.6,12.4,0001.2,0009.10,0007.52,0007.41
2023-10-29 22:34:00,SystemResetWarning,0838.8,5.00,000.00,020.2,019.9,000.0,028.4,022.0,12.2,0000.9,0009.14,0007.53,0007.41
2023-10-29 22:35:00,SystemResetWarning,0838.8,5.00,000.00,020.3,020.9,000.0,028.4,022.4,12.0,0000.1,0009.10,0007.51,0007.40
2023-10-29 22:36:00,SystemResetWarning,0838.8,5.00,000.00,020.4,020.9,000.0,028.5,022.3,12.1,0000.1,0009.12,0007.51,0007.39
2023-10-29 22:37:00,SystemResetWarning,0838.7,5.00,000.00,020.4,020.6,000.0,028.6,022.1,12.2,0000.0,0009.12,0007.51,0007.39
2023-10-29 22:38:00,SystemResetWarning,0838.8,4.99,000.00,020.4,020.3,000.0,028.6,021.9,12.2,0000.0,0009.19,0007.51,0007.39
2023-10-29 22:39:00,SystemResetWarning,0838.7,5.00,000.00,020.4,020.1,000.0,028.6,021.8,12.4,0000.1,0009.14,0007.46,0007.33
2023-10-29 22:40:00,SystemResetWarning,0838.7,5.00,000.00,020.3,019.9,000.0,028.6,021.7,12.5,0000.0,0009.07,0007.40,0007.28
2023-10-29 22:41:00,SystemResetWarning,0838.7,5.00,000.00,020.3,019.7,000.0,028.7,021.7,12.7,0000.0,0009.31,0007.36,0007.22
2023-10-29 22:42:00,SystemResetWarning,0838.7,5.00,000.00,020.3,019.6,000.0,028.7,021.7,12.7,0000.0,0009.24,0007.29,0007.16
2023-10-29 22:43:00,SystemResetWarning,0838.7,5.00,000.00,020.3,019.5,000.0,028.7,021.6,12.3,0000.0,0009.23,0007.26,0007.11
2023-10-29 22:44:00,SystemResetWarning,0838.7,5.00,000.00,020.3,019.4,000.0,028.7,021.6,12.2,0000.9,0009.17,0007.20,0007.06
2023-10-29 22:45:00,SystemResetWarning,0838.7,5.00,000.00,020.2,019.3,000.0,028.7,021.5,12.4,0000.9,0009.06,0007.10,0006.98
2023-10-29 22:46:00,SystemResetWarning,0838.7,4.99,000.00,020.2,019.2,000.0,028.7,021.5,12.7,0001.4,0009.01,0007.02,0006.89
2023-10-29 22:47:00,SystemResetWarning,0838.7,4.99,000.00,020.2,019.1,000.0,028.7,021.5,12.7,0000.8,0008.95,0006.94,0006.81
2023-10-29 22:48:00,SystemResetWarning,0838.7,5.00,000.00,020.2,019.1,000.0,028.6,021.4,12.7,-000.3,0008.92,0006.89,0006.77
2023-10-29 22:49:00,SystemResetWarning,0838.7,5.01,000.00,020.1,019.0,000.0,028.6,021.4,12.6,-000.6,0008.85,0006.85,0006.73
2023-10-29 22:50:00,SystemResetWarning,0838.7,5.01,000.00,020.1,019.0,000.0,028.6,021.3,12.3,-001.1,0008.95,0006.89,0006.75
2023-10-29 22:51:00,SystemResetWarning,0838.7,5.00,000.00,020.1,018.9,000.0,028.6,021.3,12.4,-001.5,0009.10,0006.96,0006.79
2023-10-29 22:52:00,SystemResetWarning,0838.7,4.99,000.00,020.0,018.9,000.0,028.6,021.3,12.6,-001.7,0009.03,0007.03,0006.85
2023-10-29 22:53:00,SystemResetWarning,0838.6,4.99,000.00,020.0,018.9,000.0,028.6,021.2,12.5,-002.3,0009.00,0007.09,0006.92
2023-10-29 22:54:00,SystemResetWarning,0838.7,5.00,000.00,020.0,018.8,000.0,028.6,021.2,12.7,-002.5,0009.04,0007.13,0006.96
2023-10-29 22:55:00,SystemResetWarning,0838.7,5.00,000.00,020.0,018.8,000.0,028.5,021.2,12.7,-002.6,0009.07,0007.18,0007.01
2023-10-29 22:56:00,SystemResetWarning,0838.7,5.01,000.00,020.0,018.8,000.0,028.5,021.2,12.7,-002.6,0009.13,0007.26,0007.09
2023-10-29 22:57:00,SystemResetWarning,0838.7,5.00,000.00,019.9,018.8,000.0,028.5,021.2,12.7,-000.0,0009.18,0007.34,0007.17
2023-10-29 22:58:00,SystemResetWarning,0838.6,5.01,000.00,019.9,018.7,000.0,028.5,021.1,12.5,0000.0,0009.25,0007.40,0007.24
2023-10-29 22:59:00,SystemResetWarning,0838.6,5.01,000.00,019.9,018.7,000.0,028.5,021.1,12.6,0000.0,0009.33,0007.49,0007.34
